Weather History for International Falls, MN

Change the Weather History Date:

Tuesday, April 30, 2013

  Actual Average Record
Temperature  
Mean Temperature 48 °F 46 °F  
Max Temperature 59 °F 59 °F 90 °F (1952)
Min Temperature 36 °F 33 °F 19 °F (1990)
Degree Days  
Heating Degree Days 17 19  
Month to date heating degree days 1007 771  
Since 1 July heating degree days 10076 9638  
Cooling Degree Days 0 0  
Month to date cooling degree days 0 1  
Year to date cooling degree days 0 1  
Moisture  
Dew Point 40 °F    
Average Humidity 68    
Maximum Humidity 93    
Minimum Humidity 43    
Precipitation  
Precipitation 0.40 in 0.07 in 0.75 in (2011)
Month to date precipitation 1.87 1.53  
Year to date precipitation 6.68 3.67  
Snow  
Snow 0.00 in 0.10 in 2.10 in (1954)
Month to date snowfall 13.6 6.4  
Since 1 July snowfall 98.6 70.8  
Snow Depth 2.00 in    
Sea Level Pressure  
Sea Level Pressure 29.50 in    
Wind  
Wind Speed 13 mph (SW)    
Max Wind Speed 30 mph    
Max Gust Speed 40 mph    
Visibility 8 miles    
Events Rain , Thunderstorm    
T = Trace of Precipitation, MM = Missing Value Source: NWS Daily Summary

Daily Weather History Graph

Daily Weather History Graph

Search for Another Location

Airport:

Trip Planner

Search our weather history database for the weather conditions in past years. The results will help you decide how hot, cold, wet, or windy it might be!

Date:

Astronomy

Apr. 30, 2013 Rise Set
Actual Time 5:55 AM CDT 8:27 PM CDT
Civil Twilight 5:20 AM CDT 9:02 PM CDT
Nautical Twilight 4:35 AM CDT 9:47 PM CDT
Astronomical Twilight 3:44 AM CDT 10:39 PM CDT
Moon 12:56 AM CDT (4/30) 10:19 AM CDT (4/30)
Length of Visible Light 15h 42m
Length of Day
14h 32m
Waning Gibbous, 70% of the Moon is Illuminated
Apr 30
Waning Gibbous
May 2
Last Quarter
May 9
New
May 17
First Quarter
May 24
Full

Hourly Weather History & Observations

Time (CDT) Temp. Windchill Dew Point Humidity Pressure Visibility Wind Dir Wind Speed Gust Speed Precip Events Conditions
12:55 AM 44.1 °F 40.8 °F 28.0 °F 53% 29.58 in 10.0 mi ESE 5.8 mph - N/A   Mostly Cloudy
1:55 AM 46.9 °F - 28.0 °F 48% 29.56 in 10.0 mi East 6.9 mph - N/A   Clear
2:55 AM 46.0 °F 43.9 °F 30.0 °F 54% 29.52 in 10.0 mi NE 4.6 mph - N/A   Overcast
3:55 AM 43.0 °F 39.5 °F 30.0 °F 60% 29.49 in 10.0 mi NE 5.8 mph - N/A   Mostly Cloudy
4:55 AM 44.1 °F 38.6 °F 36.0 °F 73% 29.45 in 10.0 mi ESE 10.4 mph - 0.01 in Rain Light Rain
5:55 AM 46.0 °F 40.2 °F 43.0 °F 89% 29.39 in 10.0 mi ESE 12.7 mph - 0.03 in Rain Light Rain
6:42 AM 48.2 °F - 46.4 °F 93% 29.32 in 3.0 mi ESE 18.4 mph 27.6 mph 0.11 in Rain , Thunderstorm Rain
6:55 AM 48.9 °F - 46.9 °F 93% 29.34 in 4.0 mi ESE 17.3 mph 26.5 mph 0.18 in Rain , Thunderstorm Heavy Thunderstorms and Rain
7:18 AM 51.8 °F - 50.0 °F 94% 29.32 in 2.0 mi ESE 16.1 mph - 0.12 in Rain , Thunderstorm Heavy Rain
7:31 AM 48.2 °F - 48.2 °F 100% 29.28 in 3.0 mi East 15.0 mph 20.7 mph 0.18 in Rain , Thunderstorm Light Rain
7:42 AM 50.0 °F - 48.2 °F 94% 29.31 in 6.0 mi Variable 4.6 mph 21.9 mph 0.18 in   Overcast
7:55 AM 51.1 °F - 48.9 °F 92% 29.32 in 4.0 mi Calm Calm - 0.18 in   Overcast
8:04 AM 50.0 °F - 48.2 °F 94% 29.30 in 3.0 mi Calm Calm - 0.00 in Rain Light Rain
8:55 AM 50.0 °F - 48.9 °F 96% 29.29 in 9.0 mi Calm Calm - 0.00 in   Overcast
9:39 AM 50.0 °F - 48.2 °F 94% 29.24 in 7.0 mi South 6.9 mph - N/A   Overcast
9:55 AM 51.1 °F - 48.9 °F 92% 29.27 in 6.0 mi SSW 8.1 mph - N/A   Overcast
10:09 AM 51.8 °F - 48.2 °F 88% 29.25 in 2.5 mi SSW 10.4 mph 18.4 mph 0.00 in Rain Light Rain
10:28 AM 51.8 °F - 50.0 °F 94% 29.26 in 3.0 mi SSW 13.8 mph 21.9 mph 0.00 in   Overcast
10:55 AM 50.0 °F - 48.0 °F 93% 29.32 in 6.0 mi WSW 24.2 mph 34.5 mph 0.00 in   Overcast
11:55 AM 46.9 °F - 43.0 °F 86% 29.40 in 10.0 mi WSW 16.1 mph 23.0 mph N/A   Overcast
12:05 PM 48.2 °F - 42.8 °F 82% 29.38 in 10.0 mi West 15.0 mph 26.5 mph N/A   Overcast
12:29 PM 50.0 °F - 42.8 °F 76% 29.40 in 10.0 mi WSW 18.4 mph 28.8 mph N/A   Mostly Cloudy
12:55 PM 51.1 °F - 43.0 °F 74% 29.45 in 10.0 mi WSW 13.8 mph 27.6 mph N/A   Mostly Cloudy
1:52 PM 55.4 °F - 44.6 °F 67% 29.46 in 10.0 mi SW 23.0 mph 28.8 mph N/A   Overcast
1:55 PM 54.0 °F - 44.1 °F 69% 29.47 in 10.0 mi SW 20.7 mph 29.9 mph N/A   Mostly Cloudy
2:55 PM 57.9 °F - 39.9 °F 51% 29.50 in 10.0 mi WSW 16.1 mph 34.5 mph N/A   Scattered Clouds
3:55 PM 57.2 °F - 35.6 °F 44% 29.53 in 10.0 mi WSW 20.7 mph 38.0 mph N/A   Mostly Cloudy
4:55 PM 55.9 °F - 37.0 °F 49% 29.60 in 10.0 mi WSW 19.6 mph 32.2 mph N/A   Mostly Cloudy
5:55 PM 54.0 °F - 35.1 °F 49% 29.66 in 10.0 mi WSW 18.4 mph 27.6 mph N/A   Mostly Cloudy
6:55 PM 51.1 °F - 35.1 °F 54% 29.70 in 10.0 mi SW 16.1 mph 31.1 mph N/A   Overcast
7:55 PM 48.0 °F - 33.1 °F 56% 29.76 in 10.0 mi WSW 16.1 mph 32.2 mph N/A   Mostly Cloudy
8:55 PM 46.9 °F - 34.0 °F 61% 29.80 in 10.0 mi WSW 17.3 mph 26.5 mph N/A   Overcast
9:55 PM 46.0 °F 39.6 °F 34.0 °F 63% 29.83 in 10.0 mi WSW 15.0 mph 27.6 mph N/A   Overcast
10:31 PM 44.6 °F 37.4 °F 35.6 °F 71% 29.82 in 10.0 mi West 16.1 mph 29.9 mph N/A   Overcast
10:55 PM 41.0 °F 33.9 °F 36.0 °F 82% 29.87 in 10.0 mi West 12.7 mph - N/A   Overcast
11:29 PM 39.2 °F 32.0 °F 33.8 °F 81% 29.86 in 10.0 mi West 11.5 mph 20.7 mph N/A   Overcast
11:55 PM 39.0 °F 32.8 °F 33.1 °F 79% 29.90 in 10.0 mi West 9.2 mph 19.6 mph N/A   Overcast